This demonstration page uses our WeatherBlox Daily Observations layout. Learn more.

Left ArrowRight Arrow

Hourly Observations for January 7, 2017

Temp ( °F °C ) Dew Point ( °F °C ) Humidity (%) Winds ( mph kmh ) Pressure ( in mb ) Visibility ( mi km ) Precip ( " mm )
12:15 am 00:15 Partly Cloudy 25 -4 10 -12 54 54 N 9 15 30.33 1027 10 16 N/A
12:35 am 00:35 Cloudy 25 -4 10 -12 54 54 N 9 15 30.33 1027 10 16 N/A
12:55 am 00:55 Cloudy 25 -4 9 -13 50 50 N 12 19 30.33 1027 10 16 N/A
1:15 am 01:15 Cloudy 25 -4 9 -13 50 50 N 9 15 30.33 1027 10 16 N/A
1:35 am 01:35 Cloudy 25 -4 10 -12 54 54 N 9 15 30.33 1027 10 16 N/A
1:55 am 01:55 Cloudy 25 -4 9 -13 50 50 N 9 15 30.33 1027 10 16 N/A
2:15 am 02:15 Cloudy 25 -4 10 -12 54 54 N 8 13 30.33 1027 10 16 N/A
2:35 am 02:35 Cloudy 23 -5 10 -12 58 58 NNW 9 15 30.33 1027 10 16 N/A
2:55 am 02:55 Cloudy 23 -5 10 -12 58 58 N 8 13 30.36 1028 10 16 N/A
3:15 am 03:15 Cloudy 23 -5 10 -12 58 58 N 8 13 30.36 1028 10 16 N/A
3:35 am 03:35 Cloudy 23 -5 10 -12 58 58 N 9 15 30.36 1028 10 16 N/A
3:55 am 03:55 Cloudy 23 -5 10 -12 58 58 N 6 9 30.36 1028 10 16 N/A
4:15 am 04:15 Cloudy 23 -5 10 -12 58 58 N 9 15 30.33 1027 10 16 N/A
4:35 am 04:35 Cloudy 23 -5 10 -12 58 58 N 8 13 30.33 1027 10 16 N/A
4:55 am 04:55 Cloudy 21 -6 10 -12 63 63 N 9 15 30.33 1027 10 16 N/A
5:35 am 05:35 Cloudy 21 -6 10 -12 63 63 N 7 11 30.33 1027 10 16 N/A
5:55 am 05:55 Cloudy 21 -6 10 -12 63 63 N 10 17 30.30 1026 10 16 N/A
6:15 am 06:15 Cloudy 21 -6 10 -12 63 63 NNW 12 19 30.30 1026 10 16 N/A
6:35 am 06:35 Cloudy 21 -6 12 -11 68 68 NNW 9 15 30.30 1026 10 16 N/A
6:55 am 06:55 Cloudy 21 -6 10 -12 63 63 N 8 13 30.30 1026 10 16 N/A
7:15 am 07:15 Cloudy 21 -6 12 -11 68 68 N 10 17 30.30 1026 10 16 N/A
7:35 am 07:35 Cloudy with Light Snow 21 -6 12 -11 68 68 N 8 13 30.33 1027 10 16 N/A
7:55 am 07:55 Cloudy 21 -6 10 -12 63 63 NNW 9 15 30.33 1027 10 16 N/A
8:15 am 08:15 Cloudy 21 -6 10 -12 63 63 N 6 9 30.33 1027 10 16 N/A
8:35 am 08:35 Cloudy 21 -6 10 -12 63 63 N 7 11 30.39 1029 10 16 N/A
8:55 am 08:55 Cloudy 21 -6 12 -11 68 68 N 7 11 30.39 1029 10 16 N/A
9:16 am 09:16 Cloudy 21 -6 12 -11 68 68 N 8 13 30.39 1029 10 16 N/A
9:35 am 09:35 Cloudy 23 -5 12 -11 63 63 N 9 15 30.36 1028 10 16 N/A
9:55 am 09:55 Cloudy 23 -5 12 -11 63 63 N 8 13 30.36 1028 10 16 N/A
10:15 am 10:15 Cloudy 23 -5 12 -11 63 63 N 12 19 30.36 1028 10 16 N/A
10:35 am 10:35 Cloudy 23 -5 12 -11 63 63 N 10 17 30.33 1027 10 16 N/A
10:55 am 10:55 Cloudy with Light Snow 23 -5 12 -11 63 63 NNW 14 22 30.33 1027 5 8 N/A
11:15 am 11:15 Cloudy with Light Snow 21 -6 16 -9 80 80 NNW 9 15 30.33 1027 2 3 N/A
11:35 am 11:35 Cloudy with Light Snow 21 -6 18 -8 86 86 N 10 17 30.33 1027 4 6 N/A
11:55 am 11:55 Cloudy with Light Snow 21 -6 16 -9 80 80 NNW 15 24 30.30 1026 10 16 N/A
12:15 pm 12:15 Cloudy with Light Snow 21 -6 16 -9 80 80 NW 13 20 30.30 1026 5 8 N/A
12:35 pm 12:35 Cloudy 23 -5 16 -9 74 74 NW 13 20 30.27 1025 10 16 N/A
12:55 pm 12:55 Cloudy 25 -4 12 -11 59 59 NNW 15 24 30.27 1025 10 16 N/A
1:15 pm 13:15 Cloudy 25 -4 12 -11 59 59 NW 15 24 30.27 1025 10 16 N/A
1:35 pm 13:35 Cloudy 25 -4 12 -11 59 59 NNW 16 26 30.27 1025 10 16 N/A
1:57 pm 13:57 Cloudy 25 -4 10 -12 54 54 NNW 14 22 30.27 1025 10 16 N/A
2:16 pm 14:16 Cloudy 25 -4 10 -12 54 54 NNW 16 26 30.27 1025 10 16 N/A
2:35 pm 14:35 Cloudy 25 -4 10 -12 54 54 NW 12 19 30.27 1025 10 16 N/A
2:57 pm 14:57 Mostly Cloudy 25 -4 10 -12 54 54 NW 15 24 30.27 1025 10 16 N/A
3:15 pm 15:15 Partly Cloudy 25 -4 9 -13 50 50 NNW 18 30 30.27 1025 10 16 N/A
3:35 pm 15:35 Sunny 25 -4 9 -13 50 50 NNW 16 26 30.27 1025 10 16 N/A
3:55 pm 15:55 Sunny 25 -4 10 -12 54 54 N 10 17 30.27 1025 10 16 N/A
4:15 pm 16:15 Sunny 25 -4 10 -12 54 54 NNW 12 19 30.27 1025 10 16 N/A
4:35 pm 16:35 Sunny 25 -4 9 -13 50 50 NNW 14 22 30.27 1025 10 16 N/A
4:55 pm 16:55 Sunny 25 -4 9 -13 50 50 NNW 14 22 30.27 1025 10 16 N/A
5:15 pm 17:15 Clear 25 -4 9 -13 50 50 NNW 12 19 30.27 1025 10 16 N/A
5:35 pm 17:35 Clear 25 -4 9 -13 50 50 NNW 16 26 30.27 1025 10 16 N/A
5:55 pm 17:55 Clear 23 -5 9 -13 54 54 NNW 16 26 30.30 1026 10 16 N/A
6:15 pm 18:15 Clear 23 -5 9 -13 54 54 NNW 15 24 30.30 1026 10 16 N/A
6:35 pm 18:35 Clear 21 -6 9 -13 58 58 NNW 10 17 30.30 1026 10 16 N/A
6:55 pm 18:55 Clear 21 -6 9 -13 58 58 N 16 26 30.30 1026 10 16 N/A
7:15 pm 19:15 Clear 21 -6 9 -13 58 58 NNW 17 28 30.33 1027 10 16 N/A
7:35 pm 19:35 Clear 21 -6 9 -13 58 58 NNW 14 22 30.33 1027 10 16 N/A
7:55 pm 19:55 Clear 19 -7 9 -13 63 63 NW 18 30 30.36 1028 10 16 N/A
8:15 pm 20:15 Clear 19 -7 9 -13 63 63 NNW 16 26 30.39 1029 10 16 N/A
8:35 pm 20:35 Clear 19 -7 9 -13 63 63 NW 13 20 30.39 1029 10 16 N/A
8:55 pm 20:55 Clear 19 -7 7 -14 58 58 NW 20 31 30.39 1029 10 16 N/A
9:15 pm 21:15 Clear 19 -7 7 -14 58 58 NW 15 24 30.39 1029 10 16 N/A
9:35 pm 21:35 Clear 19 -7 7 -14 58 58 NW 21 33 30.39 1029 10 16 N/A
9:55 pm 21:55 Clear 19 -7 7 -14 58 58 N 14 22 30.39 1029 10 16 N/A
10:15 pm 22:15 Clear 19 -7 7 -14 58 58 NW 14 22 30.39 1029 10 16 N/A
10:35 pm 22:35 Clear 19 -7 7 -14 58 58 NNW 16 26 30.39 1029 10 16 N/A
10:55 pm 22:55 Clear 19 -7 7 -14 58 58 NNW 15 24 30.39 1029 10 16 N/A
11:16 pm 23:16 Clear 19 -7 7 -14 58 58 NW 14 22 30.39 1029 10 16 N/A
11:35 pm 23:35 Clear 18 -8 7 -14 62 62 NW 12 19 30.42 1030 10 16 N/A
11:55 pm 23:55 Clear 18 -8 7 -14 62 62 NW 10 17 30.42 1030 10 16 N/A

Powered by AerisWeather